Tracking 30746 objects as of 19-Jun-2025
HD Live streaming from Space Station
objects crossing your sky now

COSMOS 2357

Track COSMOS 2357 now!
10-day predictions
COSMOS 2357 is classified as:


NORAD ID: 25368
Int'l Code: 1998-036F
Perigee: 1,301.5 km
Apogee: 1,868.5 km
Inclination: 82.6 °
Period: 117.7 minutes
Semi major axis: 7956 km
RCS: 1.0721 m2 (large)
Launch date: June 15, 1998
Source: Commonwealth of Independent States (former USSR) (CIS)
Launch site: PLESETSK MISSILE AND SPACE COMPLEX (PKMTR)

Satellites have a single simultaneous earth-space and space-earth channel.
Your satellite tracking list
Your tracking list is empty




NASA's NSSDC Master Catalog

Two Line Element Set (TLE):
1 25368U 98036F   25170.03454988  .00000014  00000-0  26808-4 0  9999
2 25368  82.5855 176.6511 0356303 175.7762 184.6457 12.23376314206219
Source of the keplerian elements: AFSPC